sat.trackr.live / text

‹ back to catalog

STARLINK-3848

NORAD 52362 · 2022-045AH

PAYLOAD ACTIVE UNKNOWN

§ Identity

Operator
Country
US
Launch date
2022-04-29
Launch site
AFETR
Launch vehicle
Mass (kg)
RCS (m²)

Purposes: comms

External: N2YO · Heavens-Above · Gunter

§ Orbital elements

Epoch: 2026-05-25T03:50:54.411936Z

Period
95.44 min
Inclination
53.2155°
Eccentricity
0.0000735
Mean motion
15.08817210 rev/d
Perigee alt
539.3 km
Apogee alt
540.3 km
Semi-major
6,918.0 km
B*
-1.2895e-4
RAAN
205.8319°
Arg perigee
71.9297°
Mean anomaly
288.1775°
Rev number
22,746

§ Raw data

STARLINK-38481 52362U 22045AH  26145.16035199 -.00002338  00000+0 -12895-3 0  99982 52362  53.2155 205.8319 0000735  71.9297 288.1775 15.08817210227461

JSON: /api/v1/satellites/52362 · /tle

For live sub-satellite position, see the globe view (requires WebGL).

§ Visibility from observer

Set your observer location to see the next 7 days of passes ≥ 10°. The values pass through the URL so the page stays shareable.

No JS? Fill the form by hand. The geolocation button needs JavaScript.